Regional Weather Roundup
Issued by NWS Charleston, SC

Current Version | Previous Version | Graphics & Text | Print | Product List | Glossary On
Versions: 1 2 3 4 5 6 7 8 9 10 11 12 13 14 15 16 17 18 19 20 21 22 23 24 25 26 27 28 29 30 31 32 33 34 35 36 37 38 39 40 41 42 43 44 45 46 47 48 49 50
000
ASUS42 KCHS 250025
RWRCHS

REGIONAL WEATHER ROUNDUP
NATIONAL WEATHER SERVICE CHARLESTON SC
700 PM EST MON NOV 24 2014

NOTE: "FAIR" INDICATES FEW OR NO CLOUDS BELOW 12,000 FEET WITH NO
SIGNIFICANT WEATHER AND/OR OBSTRUCTIONS TO VISIBILITY.

NOT ALL STATIONS ARE QUALITY CONTROLLED BY THE NATIONAL
WEATHER SERVICE. USE DATA WITH CAUTION...ESPECIALLY
DEWPOINT OBSERVATIONS.

SCZ027-030-031-034>040-042>050-250100-
...SOUTHEAST SOUTH CAROLINA...

CITY           SKY/WX    TMP DP  RH WIND       PRES   REMARKS
N CHARLESTON   CLOUDY    66  63  90 CALM      29.94S
6HR MIN TEMP:  66; 6HR MAX TEMP:  77; 6HR PCP:  0.02;

WATERFRONT PRK   N/A     64 N/A N/A SE6         N/A
MOUNT PLEASANT CLOUDY    66  66 100 SE5       29.95F
JOHNS ISLAND   MOCLDY    64  64 100 CALM      29.95S FOG
PINOPOLIS        N/A     64  61  88 SW9G26    29.87R
MONCKS CORNER    N/A     66  66 100 CALM      29.93F
SUMMERVILLE    CLOUDY    64  64 100 CALM      29.94R
BEAUFORT MCAS  HVY RAIN  65  63  93 SW7       29.95R FOG
6HR MIN TEMP:  64; 6HR MAX TEMP:  76; 6HR PCP:  0.14;

BEAUFORT ARPT  RAIN      64  64 100 CALM      29.95R
HILTON HEAD IS MOCLDY    64  64 100 S5        29.98R
WALTERBORO     CLOUDY    64 N/A N/A SW3       29.95S
ALLENDALE      CLOUDY    63  63 100 VRB5      29.94R

...SOUTHERN MIDLANDS AND PEE DEE...

CITY           SKY/WX    TMP DP  RH WIND       PRES   REMARKS
GEORGETOWN     NOT AVBL
KINGSTREE      NOT AVBL
ORANGEBURG     CLOUDY    65  62  90 S8        29.88F
6HR MIN TEMP:  65; 6HR MAX TEMP:  72; 6HR PCP:  0.12;

BARNWELL         N/A     64  64 100 S7        29.93R
AIKEN          DRIZZLE   66  66 100 S7        29.93R
MANNING        NOT AVBL
COLUMBIA       CLOUDY    69  65  86 CALM      29.84F
6HR MIN TEMP:  69; 6HR MAX TEMP:  74; 6HR PCP: TRACE;

SUMTER         CLOUDY    66  64  94 N1        29.81F
6HR MIN TEMP:  67; 6HR MAX TEMP:  72; 6HR PCP: TRACE;

FLORENCE       LGT RAIN  66  62  87 CALM      29.85S
6HR MIN TEMP:  66; 6HR MAX TEMP:  71; 6HR PCP:  0.03;

MYRTLE BEACH   CLOUDY    66  64  94 S9        29.96R FOG
N MYRTLE BEACH CLOUDY    63  62  97 SW14      29.96R FOG
6HR MIN TEMP:  63; 6HR MAX TEMP:  68;


$$

GAZ063-065-086>088-099>101-113>116-118-119-134>141-150-250100-
...SOUTHEAST GEORGIA...

CITY           SKY/WX    TMP DP  RH WIND       PRES   REMARKS
SAVANNAH ARPT  LGT RAIN  68  64  88 S5        29.96R
6HR MIN TEMP:  67; 6HR MAX TEMP:  72; 6HR PCP:  0.16;

HUNTER AAF     LGT RAIN  66  66 100 SE3       29.94R
6HR MIN TEMP:  66; 6HR MAX TEMP:  77; 6HR PCP:  0.08;

FORT STEWART   CLOUDY    66  64  94 SE6       29.92F
6HR MIN TEMP:  66; 6HR MAX TEMP:  69; 6HR PCP:  0.49;

STATESBORO     NOT AVBL
SYLVANIA       TSTM      63  62  96 CALM      29.94S
CLAXTON        TSTM      64  64 100 CALM      29.93F

...CSRA...CENTRAL AND FAR SOUTHEAST GEORGIA...

CITY           SKY/WX    TMP DP  RH WIND       PRES   REMARKS
THOMSON        MOCLDY    69  68  98 S6        29.92R
AUGUSTA-BUSH   CLOUDY    66  63  90 S7        29.89R
6HR MIN TEMP:  65; 6HR MAX TEMP:  74; 6HR PCP:  0.03;

AUGUSTA-DANIEL LGT RAIN  67  62  84 S6        29.89R
SWAINSBORO     FAIR      68  68 100 S3        29.93R
VIDALIA        CLOUDY    63  63 100 S5        29.94R
HAZLEHURST     MOCLDY    66  66 100 S5        29.92R
ALMA           CLOUDY    64  61  90 S6        29.93R
6HR MIN TEMP:  64; 6HR MAX TEMP:  68; 6HR PCP:  0.53;

WAYCROSS       HVY RAIN  70  69  98 CALM      29.95R
JESUP          CLOUDY    70  70 100 CALM      29.95R
BAXLEY         LGT RAIN  64  64 100 S5        29.94R
BRUNSWICK      CLOUDY    70  66  88 CALM      29.97R
SAINT SIMONS   CLOUDY    70  66  87 NE5       29.96R
6HR MIN TEMP:  70; 6HR MAX TEMP:  80;


$$

SCZ027-028-034-036>038-045-046-048>050-GAZ119-141-250100-
...LAKE AND SUPPLEMENTAL COASTAL OBSERVATIONS...

STATION/POSITION TIME  TEMP    WIND        PRES    WAVE   SWELL
                       AIR SEA DIR/SP/G            HT/PER HT/PER/DIR
                 (UTC) (F)     (DEG/KT/KT) (MB)    (FT/S) (FT/S/D)
UPR LAKE MARION  NOT AVBL
WINYAH BAY       0000   64     210/  6     1014.0R
LAKE MURRAY      2300   65     190/ 12/ 15 1011.9R
ACE BASIN NERRS  0000   65        CALM     1013.0S
FORT PULASKI     0000   65     210/  2/  3 1015.2R
SAPELO ISLAND    NOT AVBL

$$

ANZ835-935-AMZ111-154-330-350-352-354-370-450-454-472-250100-
...C-MAN AND BUOY OBSERVATIONS...

STATION/POSITION TIME  TEMP    WIND        PRES    WAVE   SWELL
                       AIR SEA DIR/SP/G            HT/PER HT/PER/DIR
                 (UTC) (F)     (DEG/KT/KT) (MB)    (FT/S) (FT/S/D)
FOLLY BEACH CMAN 0000   62     200/  2/  4 1014.8R
BUOY 41004       0000   74 75  260/ 12/ 16 1014.1R   8/ 9   8/ 9
BUOY 41008       0000   67 64   90/  6/  8 1014.2R   5/10   5/110/10
CAPERS NEARSHORE 2300   62     200/ 10/ 14   N/A
FRIPP NEARSHORE  NOT AVBL


STATION/POSITION TIME  TEMP    WIND        PRES    WAVE   SWELL
                       AIR SEA DIR/SP/G            HT/PER HT/PER/DIR
                 (UTC) (F)     (DEG/KT/KT) (MB)    (FT/S) (FT/S/D)
5E ST. MARYS GA  0000      62                N/A     4/ 8
FRYING PAN BUOY  0000   73 68  220/ 14/ 16 1014.4R   8/ 8   7/140/ 8
BUOY 41025       0000   75     210/ 12/ 14 1013.3R   7/ 9   7/170/ 9
CAPE LOOKOUT NC  0000   69     220/ 12/ 15 1012.9F
BUOY 41002       NOT AVBL
BUOY 41010       0000   79 78  180/ 14/ 16 1016.4R   6/ 9   5/110/ 9
ST AUGUSTINE FL  0000   69     180/  6/  7 1014.8R


$$



USA.gov is the U.S. government's official web portal to all federal, state and local government web resources and services.